This is the latest recevied weather packets stored in our database for station/object K7CTM. If no packets are shown the sender has not sent any weather packets the latest 10 day(s).
| Time | Temp. | Humidity | Pressure | Rain* | Wind** | Luminosity | Snow |
|---|---|---|---|---|---|---|---|
| 1777774803 | 14.44° C | 47% | 1025.7 hPa | 0 mm | - | 5 W/m² | - |
| 1777774500 | 15° C | 47% | 1025.5 hPa | 0 mm | - | 8 W/m² | - |
| 1777774197 | 15.56° C | 45% | 1025.7 hPa | 0 mm | - | 11 W/m² | - |
| 1777773895 | 16.11° C | 44% | 1025.7 hPa | 0 mm | - | 15 W/m² | - |
| 1777773591 | 16.67° C | 43% | 1025.6 hPa | 0 mm | - | 20 W/m² | - |
| 1777773288 | 16.67° C | 41% | 1025.4 hPa | 0 mm | - | 25 W/m² | - |
| 1777772984 | 17.22° C | 40% | 1025.5 hPa | 0 mm | - | 33 W/m² | - |
| 1777772681 | 17.22° C | 40% | 1025.4 hPa | 0 mm | - | 44 W/m² | - |
| 1777772379 | 17.22° C | 40% | 1025.4 hPa | 0 mm | - | 51 W/m² | - |
| 1777772076 | 17.78° C | 40% | 1025.5 hPa | 0 mm | - | 56 W/m² | - |
| 1777771773 | 17.78° C | 39% | 1025.4 hPa | 0 mm | - | 62 W/m² | - |
| 1777771471 | 17.78° C | 39% | 1025.4 hPa | 0 mm | - | 66 W/m² | - |
| 1777771167 | 17.78° C | 38% | 1025.6 hPa | 0 mm | - | 68 W/m² | - |
| 1777770864 | 17.78° C | 37% | 1025.5 hPa | 0 mm | - | 64 W/m² | - |
| 1777770561 | 17.78° C | 36% | 1025.3 hPa | 0 mm | - | 63 W/m² | - |
| 1777770258 | 18.33° C | 36% | 1025.5 hPa | 0 mm | - | 83 W/m² | - |
| 1777769955 | 18.33° C | 36% | 1025.2 hPa | 0 mm | - | 97 W/m² | - |
| 1777769652 | 18.89° C | 35% | 1025.4 hPa | 0 mm | - | 115 W/m² | - |
| 1777769348 | 18.33° C | 37% | 1025.4 hPa | 0 mm | - | 125 W/m² | - |
| 1777769046 | 18.89° C | 36% | 1025.2 hPa | 0 mm | - | 107 W/m² | - |
| 1777768743 | 18.89° C | 35% | 1025.2 hPa | 0 mm | - | 110 W/m² | - |
| 1777768440 | 18.89° C | 34% | 1025.2 hPa | 0 mm | - | 123 W/m² | - |
| 1777768137 | 18.89° C | 35% | 1025 hPa | 0 mm | - | 128 W/m² | - |
| 1777767834 | 19.44° C | 35% | 1025 hPa | 0 mm | - | 139 W/m² | - |
| 1777767530 | 18.89° C | 34% | 1025.2 hPa | 0 mm | - | 143 W/m² | - |
* Rain latest hour (hover to see other rain measurements)
** Current wind speed in m/s (hover to see current wind gust speed)